[[{"header":{"parameterUnit":"m.s-1","parameterCategory":1,"la1":30.2991,"la2":30.254,"lo1":-89.0895,"lo2":-89.0444,"dy":0.0017,"dx":0.0017,"nx":28,"ny":28,"refTime":"2024-06-11T21:00:00:Z","depth":0,"parameterNumber":2,"parameterNumberName":"U-component_of_WINDS"},"data":[0,0,0,0,0,0,0,0,0,0,0,0,0,0,0,0,0,0,0,0,0,0,0,0,0,0,0,0,0,0,0,0,0,0,0,0,0,0,0,0,0,0,0,0,0,0,0,0,0,0,0,0,0,0,0,0,0,0,-0.6563,-0.6562,0,-0.6491,-0.6491,-0.649,-0.6455,-0.6455,-0.6455,-0.6455,-0.6379,-0.6377,-0.6375,0,0,0,0,0,0,0,0,0,0,0,0,0,-0.6667,-0.6665,-0.6563,-0.6562,-0.6561,-0.6492,-0.6491,-0.649,-0.6455,-0.6455,-0.6455,-0.6455,-0.638,-0.6377,-0.6375,0,0,0,0,0,0,0,0,0,0,0,0,0,-0.6611,-0.6665,-0.6563,-0.6535,-0.6532,-0.6492,-0.6491,-0.6489,-0.6455,-0.6455,-0.6455,-0.6455,-0.638,-0.6378,-0.6375,-0.6356,0,0,-0.6365,-0.6364,0,0,0,0,0,0,0,0,-0.6615,-0.6607,-0.654,-0.6537,-0.6533,-0.6482,-0.65,-0.6444,-0.6455,-0.6484,-0.6455,-0.6455,-0.6413,-0.6407,-0.6394,-0.6352,-0.6349,-0.6365,-0.6363,-0.6362,-0.6361,0,0,0,0,0,0,0,-0.6618,-0.661,-0.6534,-0.6539,-0.6535,-0.6526,-0.6518,-0.6489,-0.6449,-0.6481,-0.6479,-0.6471,-0.6411,-0.6397,-0.6392,-0.6348,-0.6365,-0.6362,-0.6361,-0.6359,-0.6288,-0.6288,0,0,0,0,0,0,-0.6627,-0.6614,-0.6537,-0.6532,-0.6575,-0.6524,-0.6515,-0.6498,-0.6449,-0.6442,-0.6471,-0.6469,-0.6402,-0.6395,-0.6389,-0.6365,-0.6362,-0.6359,-0.6357,-0.6288,-0.6288,-0.6288,0,0,0,0,0,0,-0.6629,-0.6621,-0.654,-0.6572,-0.6561,-0.6522,-0.6504,-0.6497,-0.6483,-0.6442,-0.6434,-0.6464,-0.6402,-0.6393,-0.6365,-0.6361,-0.6358,-0.6355,-0.6288,-0.6288,-0.6288,-0.6315,0,0,0,0,0,0,-0.6633,-0.6622,-0.6614,-0.6572,-0.656,-0.6517,-0.6503,-0.6496,-0.6478,-0.6475,-0.6433,-0.6426,-0.6401,-0.6369,-0.6362,-0.6357,-0.6353,-0.6289,-0.6288,-0.6288,-0.6314,-0.6316,-0.6317,0,0,0,0,0,-0.6636,-0.6624,-0.6614,-0.6605,-0.655,-0.6517,-0.6509,-0.6482,-0.6478,-0.647,-0.6444,-0.6427,-0.6363,-0.6367,-0.6358,-0.6352,-0.6289,-0.6288,-0.6288,-0.6314,-0.6316,-0.6317,0,0,0,0,0,0,-0.6665,-0.6618,-0.6606,-0.658,-0.6553,-0.6511,-0.65,-0.6485,-0.6458,-0.6456,-0.6423,-0.6413,-0.6388,-0.6367,-0.6372,-0.6332,-0.6324,-0.6322,-0.6347,-0.6348,-0.635,-0.6355,-0.635,0,0,0,0,0,-0.6669,-0.6646,-0.6606,-0.6586,-0.6574,-0.654,-0.6524,-0.6506,-0.6476,-0.6464,-0.6435,-0.6406,-0.638,-0.6363,-0.6336,-0.6311,-0.6302,-0.6303,-0.6305,-0.6306,-0.6305,-0.6291,-0.6291,-0.6288,-0.6288,-0.6288,0,0,-0.6675,-0.6646,-0.6634,-0.6592,-0.6568,-0.6546,-0.653,-0.6506,-0.6489,-0.646,-0.6431,-0.641,-0.6375,-0.6349,-0.6336,-0.6331,-0.6304,-0.6306,-0.6307,-0.6305,-0.6291,-0.6291,-0.6292,-0.6288,-0.6288,-0.6288,0,0,-0.6675,-0.6651,-0.6633,-0.6611,-0.6576,-0.6554,-0.655,-0.651,-0.6495,-0.6467,-0.6444,-0.6423,-0.6378,-0.6355,-0.6337,-0.633,-0.6314,-0.6322,-0.633,-0.6317,-0.6317,-0.6318,-0.6316,-0.6315,-0.6321,-0.6321,-0.6321,0,-0.6687,-0.6653,-0.6625,-0.6604,-0.6586,-0.656,-0.6541,-0.652,-0.6478,-0.6466,-0.6462,-0.6405,-0.638,-0.6348,-0.6347,-0.6333,-0.6328,-0.6327,-0.632,-0.632,-0.6319,-0.6317,-0.6317,-0.6323,-0.6322,-0.6322,-0.6322,0,-0.667,-0.6646,-0.6636,-0.6598,-0.6579,-0.6558,-0.6528,-0.6512,-0.6495,-0.6473,-0.6445,-0.6414,-0.6381,-0.6372,-0.6355,-0.6339,-0.6337,-0.6326,-0.6318,-0.6321,-0.6319,-0.6318,-0.6324,-0.6324,-0.6324,-0.6323,0,0,-0.6685,-0.6633,-0.663,-0.6613,-0.6574,-0.6555,-0.6534,-0.6503,-0.649,-0.6462,-0.6444,-0.6407,-0.6398,-0.6377,-0.6358,-0.6347,-0.6344,-0.6337,-0.6336,-0.634,-0.6325,-0.6333,-0.6332,-0.6334,-0.6333,-0.6333,-0.6328,0,-0.668,-0.6642,-0.6617,-0.6589,-0.6567,-0.6543,-0.6524,-0.6498,-0.6478,-0.6456,-0.6433,-0.6408,-0.6397,-0.6385,-0.6373,-0.6347,-0.6341,-0.6347,-0.6316,-0.6315,-0.6326,-0.6331,-0.6339,-0.6336,-0.6327,-0.6326,-0.6326,0,-0.6669,-0.6643,-0.6613,-0.6578,-0.6568,-0.6552,-0.6522,-0.6502,-0.6472,-0.6458,-0.6437,-0.6417,-0.6394,-0.6388,-0.6355,-0.636,-0.6346,-0.6332,-0.6331,-0.6327,-0.6321,-0.6327,-0.6334,-0.6333,-0.6324,-0.6324,-0.6325,0,-0.6683,-0.6642,-0.6619,-0.6605,-0.6562,-0.6552,-0.6534,-0.6504,-0.6488,-0.6461,-0.645,-0.6421,-0.6406,-0.6384,-0.6357,-0.6355,-0.6328,-0.6319,-0.6315,-0.6316,-0.631,-0.6311,-0.6315,-0.6301,-0.6301,-0.6301,-0.6301,0,-0.668,-0.6663,-0.6625,-0.6611,-0.6591,-0.6563,-0.6543,-0.6523,-0.6497,-0.6478,-0.6455,-0.6438,-0.6404,-0.6382,-0.6361,-0.6338,-0.6331,-0.6319,-0.6313,-0.6321,-0.6323,-0.6311,-0.6311,-0.6301,-0.6301,-0.6301,-0.6301,0,-0.6693,-0.6667,-0.664,-0.6603,-0.6594,-0.6581,-0.6549,-0.6534,-0.6513,-0.6489,-0.6482,-0.6449,-0.6423,-0.6394,-0.6358,-0.6344,-0.6322,-0.6314,-0.6332,-0.6329,-0.6327,-0.6328,-0.6324,-0.6322,-0.631,-0.631,-0.631,0,-0.6693,-0.6679,-0.6642,-0.6628,-0.6611,-0.6589,-0.6572,-0.6545,-0.6528,-0.6494,-0.6484,-0.6456,-0.6432,-0.6392,-0.6364,-0.6336,-0.6328,-0.6328,-0.6323,-0.6332,-0.6328,-0.633,-0.6328,-0.633,-0.633,-0.633,-0.633,0,-0.6696,-0.6684,-0.6661,-0.6635,-0.6616,-0.6593,-0.657,-0.656,-0.6527,-0.651,-0.6484,-0.6466,-0.643,-0.6403,-0.6372,-0.6353,-0.6336,-0.6332,-0.633,-0.6338,-0.6349,-0.6343,-0.6337,-0.6332,-0.6332,-0.6332,-0.6332,-0.6332,-0.6702,-0.6689,-0.6661,-0.6637,-0.6617,-0.6596,-0.6581,-0.6558,-0.6536,-0.6506,-0.649,-0.6464,-0.6436,-0.6393,-0.6375,-0.6354,-0.6349,-0.6345,-0.6344,-0.6344,-0.6346,-0.6353,-0.6348,-0.6348,-0.6348,-0.6348,-0.6348,0,-0.6704,-0.6685,-0.6663,-0.6632,-0.6613,-0.6601,-0.6574,-0.6559,-0.6537,-0.6512,-0.649,-0.6461,-0.6435,-0.6406,-0.6378,-0.6367,-0.6359,-0.6361,-0.6361,-0.6357,-0.6352,-0.6357,-0.6368,-0.6368,-0.6368,-0.6368,-0.6368,-0.6368,-0.6702,-0.668,-0.6666,-0.6634,-0.6615,-0.659,-0.6576,-0.6557,-0.6537,-0.6505,-0.6484,-0.6466,-0.644,-0.641,-0.6386,-0.6378,-0.6369,-0.6373,-0.6363,-0.6359,-0.6357,-0.6356,-0.636,-0.6371,-0.6371,-0.637,-0.637,-0.637]},{"header":{"parameterUnit":"m.s-1","parameterCategory":1,"la1":30.2991,"la2":30.254,"lo1":-89.0895,"lo2":-89.0444,"dy":0.0017,"dx":0.0017,"nx":28,"ny":28,"refTime":"2024-06-11T21:00:00:Z","depth":0,"parameterNumber":3,"parameterNumberName":"V-component_of_WINDS"},"data":[0,0,0,0,0,0,0,0,0,0,0,0,0,0,0,0,0,0,0,0,0,0,0,0,0,0,0,0,0,0,0,0,0,0,0,0,0,0,0,0,0,0,0,0,0,0,0,0,0,0,0,0,0,0,0,0,0,0,1.1429,1.1428,0,1.133,1.1329,1.1328,1.1217,1.1215,1.1213,1.1212,1.1108,1.1107,1.1106,0,0,0,0,0,0,0,0,0,0,0,0,0,1.152,1.1519,1.1429,1.1428,1.1427,1.133,1.1329,1.1328,1.1217,1.1215,1.1213,1.1211,1.1109,1.1107,1.1106,0,0,0,0,0,0,0,0,0,0,0,0,0,1.1457,1.1519,1.1429,1.136,1.1353,1.1331,1.1329,1.1327,1.1217,1.1215,1.1212,1.121,1.1109,1.1107,1.1106,1.1143,0,0,1.11,1.1099,0,0,0,0,0,0,0,0,1.1461,1.1454,1.1371,1.1364,1.1356,1.1283,1.1323,1.1266,1.1218,1.1269,1.1212,1.1209,1.1168,1.1161,1.1148,1.1139,1.1134,1.11,1.1099,1.1098,1.1097,0,0,0,0,0,0,0,1.1465,1.1457,1.139,1.137,1.1361,1.1333,1.1321,1.1312,1.1233,1.1264,1.1256,1.1246,1.1164,1.115,1.1145,1.1133,1.11,1.1098,1.1097,1.1096,1.1147,1.1149,0,0,0,0,0,0,1.148,1.1462,1.1393,1.1387,1.1404,1.1333,1.132,1.1309,1.1233,1.1219,1.1248,1.1241,1.1155,1.1147,1.1141,1.1178,1.1098,1.1096,1.1095,1.1144,1.1147,1.115,0,0,0,0,0,0,1.1483,1.1475,1.1397,1.1422,1.141,1.1334,1.1323,1.1308,1.1295,1.1221,1.1206,1.1248,1.1152,1.1144,1.1143,1.1173,1.1095,1.1094,1.1142,1.1145,1.1149,1.1253,0,0,0,0,0,0,1.1486,1.1477,1.1491,1.1423,1.1409,1.1402,1.1325,1.1308,1.1292,1.1282,1.1218,1.1205,1.115,1.1147,1.1142,1.1169,1.1092,1.1138,1.1143,1.1148,1.1247,1.126,1.1272,0,0,0,0,0,1.149,1.1524,1.1492,1.1484,1.1425,1.1404,1.1395,1.1332,1.1295,1.1308,1.126,1.1207,1.1172,1.1148,1.1141,1.1168,1.1136,1.1142,1.1147,1.1241,1.1258,1.1271,0,0,0,0,0,0,1.1596,1.1514,1.1477,1.1491,1.1456,1.1385,1.1399,1.1352,1.1325,1.1317,1.1239,1.1225,1.1234,1.1201,1.1176,1.12,1.1146,1.115,1.122,1.1235,1.1247,1.1253,1.1091,0,0,0,0,0,1.1622,1.1612,1.154,1.156,1.1544,1.1475,1.1463,1.1418,1.1377,1.1361,1.1314,1.1276,1.1256,1.1244,1.1222,1.1243,1.1226,1.1259,1.1271,1.1282,1.1285,1.1291,1.1304,1.1168,1.1168,1.1168,0,0,1.1673,1.1627,1.1626,1.158,1.1547,1.1537,1.1463,1.1456,1.1448,1.136,1.1356,1.1321,1.1273,1.1283,1.1285,1.1256,1.132,1.1289,1.1298,1.1295,1.1298,1.1311,1.1323,1.1172,1.1171,1.1171,0,0,1.1762,1.1728,1.1738,1.1707,1.1658,1.1612,1.1615,1.1552,1.1525,1.1521,1.1454,1.1443,1.1411,1.1379,1.1359,1.1437,1.1386,1.1433,1.1495,1.1503,1.1513,1.1522,1.1547,1.1557,1.1437,1.1437,1.1438,0,1.1832,1.1815,1.175,1.1747,1.1728,1.165,1.1659,1.1632,1.1579,1.1567,1.1536,1.1493,1.1456,1.1456,1.1476,1.1463,1.1462,1.1437,1.1517,1.1526,1.1533,1.1556,1.1566,1.1443,1.1442,1.1442,1.1441,0,1.1902,1.1892,1.1907,1.1857,1.184,1.1844,1.1778,1.1769,1.1727,1.1684,1.168,1.1633,1.1599,1.1596,1.1554,1.1591,1.1574,1.1532,1.1475,1.1553,1.1573,1.1581,1.1451,1.1449,1.1448,1.1446,0,0,1.2051,1.1966,1.1973,1.1948,1.189,1.188,1.1881,1.1848,1.184,1.1807,1.1803,1.1779,1.1739,1.1716,1.167,1.1678,1.1739,1.1634,1.1631,1.1652,1.1773,1.1803,1.1814,1.1707,1.1708,1.1709,1.1776,0,1.2126,1.2121,1.2063,1.2074,1.2063,1.1989,1.1989,1.1953,1.1914,1.1898,1.1855,1.1837,1.1788,1.1773,1.1778,1.1731,1.1762,1.1726,1.17,1.17,1.171,1.1825,1.1856,1.1922,1.1784,1.1785,1.1786,0,1.2211,1.2183,1.2194,1.2134,1.2127,1.2128,1.2093,1.208,1.2037,1.2008,1.1984,1.1932,1.1927,1.1877,1.1868,1.1845,1.1831,1.1807,1.1808,1.18,1.1745,1.1817,1.1941,1.195,1.1799,1.1798,1.1797,0,1.2315,1.228,1.2281,1.2263,1.2194,1.2196,1.2168,1.2123,1.2107,1.2077,1.2065,1.2036,1.2018,1.1996,1.1937,1.1907,1.1934,1.188,1.1908,1.1909,1.1913,1.1913,1.2034,1.1912,1.1911,1.1911,1.1911,0,1.2402,1.241,1.2326,1.2326,1.2333,1.2267,1.2276,1.224,1.2201,1.2192,1.2129,1.2122,1.2047,1.2031,1.1986,1.1983,1.1977,1.1952,1.1939,1.1955,1.1958,1.1943,1.1935,1.1914,1.1913,1.1913,1.1912,0,1.2517,1.2461,1.2457,1.2393,1.2377,1.2385,1.2329,1.2327,1.2285,1.2275,1.2269,1.2203,1.2181,1.2122,1.2085,1.2054,1.2064,1.2042,1.2078,1.2069,1.2099,1.2096,1.2211,1.2221,1.2097,1.2098,1.2099,0,1.2574,1.2578,1.2515,1.2505,1.2479,1.2464,1.2448,1.2384,1.2369,1.2322,1.2324,1.2298,1.2273,1.2242,1.219,1.2161,1.2136,1.2178,1.2131,1.2147,1.2132,1.2131,1.213,1.2187,1.2189,1.2191,1.2192,0,1.268,1.2653,1.2631,1.2601,1.2584,1.2557,1.2526,1.2522,1.245,1.2437,1.2414,1.2395,1.2358,1.2332,1.2295,1.2264,1.2215,1.2208,1.2212,1.2227,1.2246,1.2233,1.2102,1.2204,1.2203,1.2202,1.2201,1.2201,1.2765,1.2765,1.272,1.2699,1.267,1.2643,1.2636,1.2595,1.2575,1.254,1.2504,1.2485,1.2442,1.2388,1.2361,1.2345,1.2319,1.2326,1.2327,1.2329,1.2335,1.2253,1.2338,1.2338,1.2337,1.2337,1.2337,0,1.2864,1.2833,1.2814,1.2773,1.2757,1.2715,1.2679,1.2667,1.2652,1.2616,1.2594,1.2568,1.2542,1.249,1.2459,1.2456,1.2433,1.245,1.2447,1.2441,1.2362,1.2359,1.2469,1.2469,1.2469,1.2469,1.2469,1.2469,1.2914,1.2911,1.2879,1.2861,1.2829,1.2811,1.2793,1.2768,1.2739,1.2713,1.2692,1.2659,1.2616,1.2582,1.2557,1.2542,1.2532,1.2556,1.2533,1.2459,1.2447,1.2434,1.2432,1.2555,1.2555,1.2613,1.2614,1.2614]}]]